Regional Weather Roundup
Issued by NWS Charleston, SC

Home | Current Version | Previous Version | Text Only | Print | Product List | Glossary On
Versions: 1 2 3 4 5 6 7 8 9 10 11 12 13 14 15 16 17 18 19 20 21 22 23 24 25 26 27 28 29 30 31 32 33 34 35 36 37 38 39 40 41 42 43 44 45 46 47 48 49 50
000
ASUS42 KCHS 252325
RWRCHS

REGIONAL WEATHER ROUNDUP
NATIONAL WEATHER SERVICE CHARLESTON SC
700 PM EDT SAT OCT 25 2014

NOTE: "FAIR" INDICATES FEW OR NO CLOUDS BELOW 12,000 FEET WITH NO
SIGNIFICANT WEATHER AND/OR OBSTRUCTIONS TO VISIBILITY.

NOT ALL STATIONS ARE QUALITY CONTROLLED BY THE NATIONAL
WEATHER SERVICE. USE DATA WITH CAUTION...ESPECIALLY
DEWPOINT OBSERVATIONS.

SCZ027-030-031-034>040-042>050-260000-
...SOUTH CAROLINA...

CITY           SKY/WX    TMP DP  RH WIND       PRES   REMARKS
N CHARLESTON   CLEAR     69  48  47 W3        29.96R
WATERFRONT PRK   N/A     70 N/A N/A W5          N/A
FORT JOHNSON   NOT AVBL
JOHNS ISLAND   CLEAR     63  55  77 CALM      29.97R
PINOPOLIS      NOT AVBL
MONCKS CORNER  FAIR      59  57  94 CALM      29.96R
SUMMERVILLE    FAIR      61  55  82 CALM      29.97R
BEAUFORT MCAS  CLEAR     64  52  64 CALM      29.97R
BEAUFORT ARPT  FAIR      63  54  72 CALM      29.96R
HILTON HEAD IS CLEAR     63  55  77 CALM      29.98R
GEORGETOWN     NOT AVBL
WALTERBORO     CLEAR     61  54  77 CALM      29.98R
ORANGEBURG     CLEAR     62  48  60 SW3       29.96S
BARNWELL       FAIR      63  48  59 CALM      29.97S
AIKEN          FAIR      61  46  59 W5        30.01R
MANNING        FAIR      59  52  77 CALM      29.96R
KINGSTREE      NOT AVBL
COLUMBIA       CLEAR     67  47  48 CALM      29.95S
SUMTER         CLEAR     65  46  48 W3        29.94S
FLORENCE       CLEAR     64  45  49 CALM      29.94S
MYRTLE BEACH   CLEAR     64  46  52 NW6       29.94R
N MYRTLE BEACH CLEAR     63  50  62 W5        29.93R

$$

GAZ063-065-086>088-099>101-113>116-118-119-134-136>141-150-260000-
...GEORGIA...

CITY           SKY/WX    TMP DP  RH WIND       PRES   REMARKS
SAVANNAH ARPT  CLEAR     68  51  54 CALM      29.97R
HUNTER AAF     CLEAR     62  52  70 W2        29.95R
FORT STEWART   CLEAR     65  54  66 CALM      29.96R
STATESBORO     NOT AVBL
SYLVANIA       CLEAR     67  60  78 CALM      29.98R
CLAXTON        FAIR      63  57  82 CALM      29.97S
THOMSON        CLEAR     62  59  91 CALM      30.03R
AUGUSTA-BUSH   CLEAR     65  39  38 CALM      29.96S
AUGUSTA-DANIEL CLEAR     70  42  36 W5        29.98R
SWAINSBORO     FAIR      64  52  63 MISG      29.98R
VIDALIA        CLEAR     66  54  63 CALM      29.97S
ALMA           CLEAR     66  51  58 CALM      29.97R
WAYCROSS       CLEAR     67  58  72 CALM      29.98R
JESUP          FAIR      64  54  68 CALM      29.98R
BRUNSWICK      CLEAR     61  54  77 CALM      29.98S
SAINT SIMONS   CLEAR     66  53  63 CALM      29.97R

$$

SCZ027-028-034-036>038-045-046-048>050-GAZ119-141-260000-
...LAKE AND SUPPLEMENTAL COASTAL OBSERVATIONS...

STATION/POSITION TIME  TEMP    WIND        PRES    WAVE   SWELL
                       AIR SEA DIR/SP/G            HT/PER HT/PER/DIR
                 (UTC) (F)     (DEG/KT/KT) (MB)    (FT/S) (FT/S/D)
UPR LAKE MARION  NOT AVBL
WINYAH BAY       2300   64        CALM     1013.0S
LAKE MURRAY      2300   69      CALM  /  1 1013.9S
ACE BASIN NERRS  2300   63        CALM     1014.0S
FORT PULASKI     2300   68     190/  2/  2 1015.0R
SAPELO ISLAND    NOT AVBL

$$

ANZ835-935-AMZ111-154-330-350-352-354-374-450-454-472-260000-
...C-MAN AND BUOY OBSERVATIONS...

STATION/POSITION TIME  TEMP    WIND        PRES    WAVE   SWELL
                       AIR SEA DIR/SP/G            HT/PER HT/PER/DIR
                 (UTC) (F)     (DEG/KT/KT) (MB)    (FT/S) (FT/S/D)
FOLLY BEACH CMAN 2300   66     230/  4/  5 1014.8R
BUOY 41004       2300   69 77  250/  4/  6 1014.0R   2/10   2/10
BUOY 41008       2300   70 75   40/  4/  4 1014.7F   2/ 9   2/100/ 9
5E ST. MARYS GA  2300      75                N/A     2/11
FRYING PAN BUOY  2300   68 74  230/  8/ 10 1014.2F   2/ 9   2/ 90/ 9
BUOY 41025       2300   66     270/ 12/ 14 1012.1R   3/10   2/ 60/10
CAPE LOOKOUT NC  2300   66     240/  6/  8 1012.5R
BUOY 41002       2240   73 77  360/ 10/ 12 1012.8R   3/ 9   3/ 30/ 9
BUOY 41010       2300   76 82  360/ 16/ 19 1013.0R   4/ 5   2/ 70/ 8
BUOY 41012       NOT AVBL
ST AUGUSTINE FL  2300   71      30/  9/ 10 1015.5R
CAPERS NEARSHORE NOT AVBL
FRIPP NEARSHORE  NOT AVBL


$$



USA.gov is the U.S. government's official web portal to all federal, state and local government web resources and services.